Location: Peterborough
(44.3091°N, 78.3197°W)
Time: 15:49:09
(UTC-04:00)

Transit 2A - Pass Details

Date: 23 March 2023
Orbit: 591 x 964 km, 66.7° (Epoch: 04 June)

Event Time Altitude Azimuth Distance (km) Brightness Sun altitude
Rises 06:53:03 0° 213° (SSW) 3,169 8.8 -4.1°
Reaches altitude 10° 06:55:19 10° 214° (SW) 2,305 8.1 -3.7°
Maximum altitude 07:00:39 83° 303° (WNW) 844 6.2 -2.7°
Drops below altitude 10° 07:06:38 10° 31° (NNE) 2,569 9.2 -1.7°
Sets 07:09:16 0° 32° (NNE) 3,558 10.0 -1.2°
